Regional Weather Roundup
Issued by NWS

Home | Current Version | Previous Version | Graphics & Text | Print | Product List | Glossary On
Versions: 1 2 3 4 5 6 7 8 9 10 11 12 13 14 15 16 17 18 19 20 21 22 23 24 25 26 27 28 29 30 31 32 33 34 35 36 37 38 39 40 41 42 43 44 45 46 47 48 49 50
000
ASUS43 KLSX 151407
RWRMO

WEATHER SUMMARY FOR MISSOURI
NATIONAL WEATHER SERVICE SPRINGFIELD MO
900 AM CDT TUE APR 15 2014

NOTE: "FAIR" INDICATES FEW OR NO CLOUDS BELOW 12,000 FEET WITH NO
       SIGNIFICANT WEATHER AND/OR OBSTRUCTIONS TO VISIBILITY.
       CURRENT SKY AND/OR WEATHER CONDITIONS ARE NOT AVAILABLE FOR
       CHILLICOTHE AND FARMINGTON.

MOZ001>031-035>038-043-044-053-054-151500-
...NORTHERN AND WESTERN MISSOURI...

CITY           SKY/WX    TMP DP  RH WIND       PRES   REMARKS
KANSAS CTY INT MOSUNNY   38  26  62 SW3       30.21F
KANSAS C DTWN  SUNNY     39  27  62 CALM      30.23S
LEE`S SUMMIT   SUNNY     37  25  61 SW6       30.23R
ST JOSEPH      SUNNY     33  28  81 CALM      30.22F
CHILLICOTHE      N/A     35  25  66 CALM      30.23R
KIRKSVILLE     SUNNY     34  20  56 N7        30.20F WCI  28

$$
MOZ066>068-077>081-088>096-101>105-151500-
...SOUTHWEST MISSOURI...

CITY           SKY/WX    TMP DP  RH WIND       PRES   REMARKS
SPRINGFIELD    SUNNY     36  23  59 CALM      30.23R
JOPLIN         SUNNY     39  25  57 E5        30.23F

$$
MOZ032>034-039>042-045>050-055>058-069>072-151500-
...CENTRAL MISSOURI...

CITY           SKY/WX    TMP DP  RH WIND       PRES   REMARKS
COLUMBIA       SUNNY     35  19  52 N7        30.22S WCI  29
JEFFERSON CITY SUNNY     34  25  69 NW3       30.24S
ROLLA          SUNNY     33  22  63 N6        30.20R WCI  28
SEDALIA        SUNNY     36  22  56 CALM      30.24R
WHITEMAN AFB   SUNNY     36  23  60 W5        30.23R
OSAGE BEACH    SUNNY     36  19  51 NE3       30.24S

$$
MOZ051-052-059>065-151500-
...EAST CENTRAL MISSOURI...

CITY           SKY/WX    TMP DP  RH WIND       PRES   REMARKS
ST LOUIS INTL  SUNNY     37  20  50 NW15      30.22R WCI  28
SPIRIT OF STL  SUNNY     36  20  52 NW9       30.22R WCI  29
ST CHARLES     SUNNY     36  19  50 NW10      30.22R WCI  28

$$
MOZ072>076-082>087-097>100-106>115-151500-
...SOUTH CENTRAL AND SOUTHEAST MISSOURI...

CITY           SKY/WX    TMP DP  RH WIND       PRES   REMARKS
CAPE GIRARDEAU SUNNY     38  23  55 N17G23    30.21R WCI  28
FARMINGTON     SUNNY     34  18  51 N12G22    30.22R WCI  25
POPLAR BLUFF   SUNNY     39  20  46 MISG      30.21R
WEST PLAINS    SUNNY     37  23  56 N9        30.22R

$$



USA.gov is the U.S. government's official web portal to all federal, state and local government web resources and services.